Powrót do katalogu

COSMOS 2194

AktywnyNawigacjaLEO
NORAD 21983·PAYLOAD·🇷🇺 Russia

Wystrzelony Jun 3, 1992 z Plesetsk Cosmodrome

Loading…

Następne Przeloty (najbliższe 24 godziny)

TLE

ŚwieżeSource: Space-Track

Epoka: Sep 14, 2026, 15:22 UTC

1 21983U 92030H   26257.64045285 -.00000016  00000-0 -38081-5 0  9997
2 21983  74.0018 215.6616 0016316 143.0289  30.2390 12.48477034562477

Śledź COSMOS 2194 w czasie rzeczywistym z AllMySat

Download on the App Store